AAL32 KLAX-KSFO

Flight info

Callsign AAL32
Flight time 0h 56m
Altitude 36000
Route SUMMR2 STOKD SERFR SERFR4
Aircraft A321/M-SDE3FGHIRWY/LB1

Departure

Time 2026-04-25 04:19
Airport Los Angeles International Airport (KLAX)

Arrival

Time 2026-04-25 05:15
Airport San Francisco International Airport (KSFO)
Time Latitude Longitude Altitude Speed Heading
2026-04-25 03:46 33.94066 -118.40376 123 ft 0 kts 262°
2026-04-25 04:04 33.94067 -118.40373 110 ft 3 kts 262°
2026-04-25 04:05 33.94070 -118.40346 106 ft 4 kts 251°
2026-04-25 04:05 33.94083 -118.40323 125 ft 4 kts 196°
2026-04-25 04:05 33.94102 -118.40321 120 ft 0 kts 173°
2026-04-25 04:12 33.94077 -118.40317 123 ft 8 kts 173°
2026-04-25 04:13 33.94016 -118.40308 124 ft 8 kts 171°
2026-04-25 04:13 33.93936 -118.40295 123 ft 14 kts 172°
2026-04-25 04:13 33.93855 -118.40255 125 ft 13 kts 100°
2026-04-25 04:13 33.93866 -118.40119 124 ft 20 kts 82°
2026-04-25 04:14 33.93885 -118.39927 124 ft 24 kts 82°
2026-04-25 04:14 33.93905 -118.39722 125 ft 25 kts 83°
2026-04-25 04:14 33.93927 -118.39526 124 ft 22 kts 83°
2026-04-25 04:14 33.93944 -118.39355 123 ft 21 kts 83°
2026-04-25 04:15 33.93962 -118.39176 125 ft 22 kts 83°
2026-04-25 04:15 33.93981 -118.38991 126 ft 23 kts 82°
2026-04-25 04:15 33.94001 -118.38799 122 ft 23 kts 83°
2026-04-25 04:15 33.94021 -118.38601 126 ft 24 kts 83°
2026-04-25 04:16 33.94035 -118.38460 124 ft 4 kts 83°
2026-04-25 04:16 33.94038 -118.38423 124 ft 6 kts 83°
2026-04-25 04:16 33.94046 -118.38353 126 ft 11 kts 83°
2026-04-25 04:16 33.94058 -118.38226 126 ft 19 kts 83°
2026-04-25 04:17 33.94076 -118.38058 126 ft 15 kts 84°
2026-04-25 04:17 33.94034 -118.38002 123 ft 10 kts 167°
2026-04-25 04:17 33.93985 -118.38039 123 ft 9 kts 249°
2026-04-25 04:17 33.93983 -118.38051 126 ft 0 kts 258°
2026-04-25 04:18 33.93982 -118.38055 122 ft 2 kts 259°
2026-04-25 04:18 33.93953 -118.38314 122 ft 69 kts 263°
2026-04-25 04:18 33.93863 -118.39170 123 ft 135 kts 263°
2026-04-25 04:19 33.93732 -118.40450 168 ft 178 kts 262°
2026-04-25 04:19 33.93575 -118.42035 481 ft 199 kts 262°
2026-04-25 04:19 33.93402 -118.43663 1169 ft 198 kts 263°
2026-04-25 04:19 33.93239 -118.45316 1953 ft 197 kts 263°
2026-04-25 04:20 33.93083 -118.47009 2276 ft 211 kts 264°
2026-04-25 04:20 33.92929 -118.48803 2551 ft 222 kts 264°
2026-04-25 04:20 33.92767 -118.50769 2710 ft 249 kts 264°
2026-04-25 04:20 33.92594 -118.52885 3408 ft 256 kts 265°
2026-04-25 04:21 33.92416 -118.55031 4216 ft 260 kts 264°
2026-04-25 04:21 33.92233 -118.57214 5001 ft 264 kts 264°
2026-04-25 04:21 33.92050 -118.59405 5793 ft 267 kts 264°
2026-04-25 04:21 33.91865 -118.61636 6581 ft 270 kts 264°
2026-04-25 04:22 33.91762 -118.63901 7356 ft 272 kts 269°
2026-04-25 04:22 33.91761 -118.66178 8160 ft 273 kts 269°
2026-04-25 04:22 33.91756 -118.68466 8974 ft 274 kts 269°
2026-04-25 04:22 33.91747 -118.70766 9789 ft 275 kts 269°
2026-04-25 04:23 33.91738 -118.73104 10302 ft 288 kts 269°
2026-04-25 04:23 33.91725 -118.75617 10489 ft 311 kts 269°
2026-04-25 04:23 33.91712 -118.78270 10938 ft 321 kts 269°
2026-04-25 04:23 33.91698 -118.80974 11628 ft 324 kts 269°
2026-04-25 04:24 33.91686 -118.83693 11953 ft 325 kts 269°
2026-04-25 04:24 33.91726 -118.86422 12666 ft 326 kts 271°
2026-04-25 04:24 33.91805 -118.89145 13460 ft 326 kts 271°
2026-04-25 04:24 33.91901 -118.91868 14169 ft 326 kts 271°
2026-04-25 04:25 33.91999 -118.94610 14811 ft 328 kts 271°
2026-04-25 04:25 33.92103 -118.97363 15423 ft 331 kts 274°
2026-04-25 04:25 33.92559 -119.00096 16026 ft 336 kts 286°
2026-04-25 04:25 33.93562 -119.02659 16643 ft 343 kts 299°
2026-04-25 04:26 33.95093 -119.04906 17247 ft 352 kts 311°
2026-04-25 04:26 33.96891 -119.06922 17877 ft 355 kts 312°
2026-04-25 04:26 33.98709 -119.08956 18445 ft 357 kts 312°
2026-04-25 04:26 34.00512 -119.10978 18955 ft 360 kts 312°
2026-04-25 04:27 34.02371 -119.13066 19500 ft 362 kts 312°
2026-04-25 04:27 34.04216 -119.15145 20063 ft 364 kts 312°
2026-04-25 04:27 34.06066 -119.17232 20625 ft 366 kts 312°
2026-04-25 04:27 34.07928 -119.19334 21177 ft 368 kts 312°
2026-04-25 04:28 34.09801 -119.21451 21717 ft 370 kts 312°
2026-04-25 04:28 34.11658 -119.23553 22230 ft 372 kts 312°
2026-04-25 04:28 34.13549 -119.25692 22725 ft 375 kts 311°
2026-04-25 04:28 34.15463 -119.27859 23191 ft 379 kts 311°
2026-04-25 04:29 34.17392 -119.30044 23652 ft 381 kts 311°
2026-04-25 04:29 34.19332 -119.32241 24050 ft 383 kts 311°
2026-04-25 04:29 34.21287 -119.34455 24480 ft 386 kts 311°
2026-04-25 04:29 34.23241 -119.36667 24940 ft 386 kts 311°
2026-04-25 04:30 34.25206 -119.38891 25357 ft 387 kts 311°
2026-04-25 04:30 34.27169 -119.41116 25756 ft 389 kts 311°
2026-04-25 04:30 34.29149 -119.43365 26134 ft 391 kts 311°
2026-04-25 04:30 34.31133 -119.45626 26521 ft 393 kts 311°
2026-04-25 04:31 34.33123 -119.47895 26890 ft 395 kts 311°
2026-04-25 04:31 34.35126 -119.50183 27254 ft 397 kts 311°
2026-04-25 04:31 34.37137 -119.52482 27626 ft 399 kts 311°
2026-04-25 04:31 34.39161 -119.54796 27974 ft 401 kts 311°
2026-04-25 04:32 34.41200 -119.57125 28340 ft 403 kts 311°
2026-04-25 04:32 34.43243 -119.59462 28704 ft 405 kts 310°
2026-04-25 04:32 34.45293 -119.61808 29059 ft 407 kts 311°
2026-04-25 04:32 34.47357 -119.64166 29376 ft 409 kts 310°
2026-04-25 04:33 34.48732 -119.65737 29622 ft 410 kts 311°
2026-04-25 04:33 34.50813 -119.68116 29952 ft 412 kts 310°
2026-04-25 04:33 34.52904 -119.70512 30250 ft 414 kts 310°
2026-04-25 04:33 34.55000 -119.72919 30528 ft 416 kts 310°
2026-04-25 04:34 34.57101 -119.75337 30795 ft 417 kts 310°
2026-04-25 04:34 34.59213 -119.77767 31088 ft 419 kts 310°
2026-04-25 04:34 34.62023 -119.80997 31557 ft 420 kts 309°
2026-04-25 04:34 34.63456 -119.82642 31836 ft 419 kts 309°
2026-04-25 04:35 34.65571 -119.85072 32259 ft 418 kts 309°
2026-04-25 04:35 34.67684 -119.87502 32655 ft 417 kts 309°
2026-04-25 04:35 34.69789 -119.89922 33067 ft 416 kts 308°
2026-04-25 04:35 34.71860 -119.92305 33480 ft 415 kts 308°
2026-04-25 04:36 34.73950 -119.94714 33895 ft 413 kts 308°
2026-04-25 04:36 34.76053 -119.97142 34264 ft 410 kts 308°
2026-04-25 04:36 34.78116 -119.99526 34580 ft 408 kts 307°
2026-04-25 04:36 34.80150 -120.01878 34911 ft 407 kts 307°
2026-04-25 04:37 34.82194 -120.04251 35229 ft 406 kts 307°
2026-04-25 04:37 34.84227 -120.06615 35556 ft 404 kts 307°
2026-04-25 04:37 34.86261 -120.08979 35878 ft 404 kts 307°
2026-04-25 04:38 34.90298 -120.13665 36023 ft 398 kts 307°
2026-04-25 04:38 34.94291 -120.18298 36002 ft 395 kts 307°
2026-04-25 04:39 34.98258 -120.22933 36007 ft 395 kts 307°
2026-04-25 04:39 35.02226 -120.27567 36003 ft 395 kts 307°
2026-04-25 04:40 35.06197 -120.32197 36004 ft 395 kts 307°
2026-04-25 04:40 35.10166 -120.36834 36026 ft 395 kts 307°
2026-04-25 04:41 35.14140 -120.41485 36003 ft 395 kts 307°
2026-04-25 04:41 35.18080 -120.46114 36001 ft 396 kts 307°
2026-04-25 04:42 35.22074 -120.50814 36007 ft 397 kts 307°
2026-04-25 04:42 35.26030 -120.55463 36037 ft 398 kts 308°
2026-04-25 04:43 35.30025 -120.60157 36031 ft 398 kts 307°
2026-04-25 04:43 35.34009 -120.64854 36026 ft 397 kts 307°
2026-04-25 04:44 35.37988 -120.69555 36021 ft 397 kts 307°
2026-04-25 04:44 35.41967 -120.74270 36035 ft 397 kts 308°
2026-04-25 04:45 35.45943 -120.78974 36025 ft 398 kts 308°
2026-04-25 04:45 35.50124 -120.83474 36020 ft 404 kts 314°
2026-04-25 04:46 35.54617 -120.87629 36015 ft 404 kts 314°
2026-04-25 04:46 35.59099 -120.91791 36033 ft 404 kts 314°
2026-04-25 04:47 35.63579 -120.95951 36012 ft 403 kts 314°
2026-04-25 04:47 35.68024 -121.00089 36006 ft 403 kts 314°
2026-04-25 04:48 35.72494 -121.04250 36004 ft 403 kts 314°
2026-04-25 04:48 35.76965 -121.08407 36019 ft 402 kts 314°
2026-04-25 04:49 35.81418 -121.12571 36014 ft 401 kts 314°
2026-04-25 04:49 35.85862 -121.16750 35509 ft 405 kts 314°
2026-04-25 04:49 35.88097 -121.18846 35033 ft 403 kts 315°
2026-04-25 04:50 35.90326 -121.20928 34598 ft 400 kts 315°
2026-04-25 04:50 35.92540 -121.22997 34168 ft 397 kts 315°
2026-04-25 04:50 35.94732 -121.25050 33681 ft 394 kts 315°
2026-04-25 04:50 35.96901 -121.27086 33256 ft 389 kts 315°
2026-04-25 04:51 35.99019 -121.29077 32832 ft 385 kts 315°
2026-04-25 04:51 36.01133 -121.31068 32414 ft 380 kts 315°
2026-04-25 04:51 36.03224 -121.33042 31991 ft 376 kts 315°
2026-04-25 04:51 36.05290 -121.34994 31540 ft 373 kts 315°
2026-04-25 04:52 36.07384 -121.36885 31076 ft 374 kts 320°
2026-04-25 04:52 36.09588 -121.38604 30624 ft 373 kts 320°
2026-04-25 04:52 36.11777 -121.40312 30183 ft 371 kts 320°
2026-04-25 04:52 36.13958 -121.42015 29692 ft 370 kts 320°
2026-04-25 04:53 36.16129 -121.43702 29252 ft 367 kts 320°
2026-04-25 04:53 36.18281 -121.45375 28825 ft 362 kts 320°
2026-04-25 04:53 36.20401 -121.47027 28428 ft 359 kts 320°
2026-04-25 04:53 36.22506 -121.48674 28014 ft 357 kts 320°
2026-04-25 04:54 36.24599 -121.50315 27613 ft 354 kts 320°
2026-04-25 04:54 36.26671 -121.51939 27218 ft 352 kts 320°
2026-04-25 04:54 36.28737 -121.53556 26833 ft 349 kts 320°
2026-04-25 04:54 36.30782 -121.55156 26445 ft 346 kts 320°
2026-04-25 04:55 36.32805 -121.56744 26061 ft 342 kts 320°
2026-04-25 04:55 36.34806 -121.58320 25672 ft 340 kts 320°
2026-04-25 04:55 36.36793 -121.59884 25282 ft 337 kts 320°
2026-04-25 04:55 36.38765 -121.61433 24897 ft 334 kts 321°
2026-04-25 04:56 36.40725 -121.62971 24505 ft 333 kts 321°
2026-04-25 04:56 36.42678 -121.64506 24131 ft 331 kts 321°
2026-04-25 04:56 36.44620 -121.66035 23730 ft 330 kts 321°
2026-04-25 04:56 36.46558 -121.67564 23284 ft 329 kts 322°
2026-04-25 04:57 36.48479 -121.69081 22889 ft 326 kts 322°
2026-04-25 04:57 36.50382 -121.70585 22503 ft 323 kts 322°
2026-04-25 04:57 36.52270 -121.72074 22117 ft 320 kts 322°
2026-04-25 04:57 36.54141 -121.73548 21728 ft 317 kts 322°
2026-04-25 04:58 36.55996 -121.75013 21354 ft 314 kts 322°
2026-04-25 04:58 36.57833 -121.76465 20986 ft 312 kts 322°
2026-04-25 04:58 36.59663 -121.77913 20639 ft 310 kts 323°
2026-04-25 04:58 36.61451 -121.79329 20254 ft 308 kts 323°
2026-04-25 04:59 36.63257 -121.80761 19879 ft 307 kts 323°
2026-04-25 04:59 36.65051 -121.82188 19506 ft 305 kts 323°
2026-04-25 04:59 36.66834 -121.83605 19138 ft 304 kts 324°
2026-04-25 04:59 36.68616 -121.85021 18781 ft 303 kts 324°
2026-04-25 05:00 36.70390 -121.86432 18415 ft 302 kts 324°
2026-04-25 05:00 36.72156 -121.87834 18044 ft 300 kts 324°
2026-04-25 05:00 36.73989 -121.89072 17676 ft 300 kts 333°
2026-04-25 05:00 36.75965 -121.89933 17319 ft 302 kts 342°
2026-04-25 05:01 36.78010 -121.90509 16948 ft 301 kts 345°
2026-04-25 05:01 36.80048 -121.91072 16586 ft 299 kts 345°
2026-04-25 05:01 36.82078 -121.91635 16230 ft 298 kts 346°
2026-04-25 05:01 36.84097 -121.92196 15866 ft 296 kts 346°
2026-04-25 05:02 36.86103 -121.92756 15512 ft 295 kts 346°
2026-04-25 05:02 36.88103 -121.93315 15162 ft 294 kts 346°
2026-04-25 05:02 36.90091 -121.93873 14812 ft 292 kts 346°
2026-04-25 05:02 36.92071 -121.94431 14452 ft 291 kts 347°
2026-04-25 05:03 36.94044 -121.94986 14106 ft 290 kts 347°
2026-04-25 05:03 36.96005 -121.95574 13762 ft 289 kts 345°
2026-04-25 05:03 36.97939 -121.96276 13387 ft 288 kts 343°
2026-04-25 05:03 36.99845 -121.97025 13039 ft 286 kts 343°
2026-04-25 05:04 37.01730 -121.97788 12701 ft 284 kts 342°
2026-04-25 05:04 37.03608 -121.98552 12362 ft 282 kts 342°
2026-04-25 05:04 37.05469 -121.99301 12025 ft 281 kts 342°
2026-04-25 05:04 37.07331 -122.00040 11684 ft 280 kts 343°
2026-04-25 05:05 37.09186 -122.00767 11350 ft 279 kts 343°
2026-04-25 05:05 37.11008 -122.01478 11014 ft 278 kts 343°
2026-04-25 05:05 37.12852 -122.02198 10683 ft 277 kts 343°
2026-04-25 05:05 37.14688 -122.02913 10348 ft 276 kts 342°
2026-04-25 05:06 37.16520 -122.03629 10019 ft 276 kts 342°
2026-04-25 05:06 37.18352 -122.04348 9668 ft 276 kts 342°
2026-04-25 05:06 37.20180 -122.05068 9322 ft 275 kts 342°
2026-04-25 05:06 37.22006 -122.05786 8986 ft 273 kts 342°
2026-04-25 05:07 37.23815 -122.06495 8632 ft 272 kts 342°
2026-04-25 05:07 37.25615 -122.07199 8325 ft 271 kts 342°
2026-04-25 05:07 37.27408 -122.07904 8025 ft 269 kts 342°
2026-04-25 05:07 37.29202 -122.08610 7677 ft 272 kts 341°
2026-04-25 05:08 37.31008 -122.09322 7320 ft 272 kts 341°
2026-04-25 05:08 37.32815 -122.10036 6966 ft 272 kts 341°
2026-04-25 05:08 37.34627 -122.10753 6600 ft 272 kts 342°
2026-04-25 05:08 37.36430 -122.11461 6272 ft 271 kts 341°
2026-04-25 05:09 37.38227 -122.12157 5918 ft 270 kts 343°
2026-04-25 05:09 37.40035 -122.12799 5561 ft 269 kts 343°
2026-04-25 05:09 37.41835 -122.13411 5233 ft 268 kts 344°
2026-04-25 05:09 37.43622 -122.14013 4911 ft 266 kts 344°
2026-04-25 05:10 37.45408 -122.14616 4586 ft 264 kts 343°
2026-04-25 05:10 37.47181 -122.15201 4261 ft 263 kts 343°
2026-04-25 05:10 37.48946 -122.15775 3941 ft 261 kts 343°
2026-04-25 05:10 37.50700 -122.16345 3629 ft 259 kts 343°
2026-04-25 05:11 37.52422 -122.16955 3324 ft 255 kts 335°
2026-04-25 05:11 37.53847 -122.18195 3012 ft 247 kts 309°
2026-04-25 05:11 37.54746 -122.19995 2716 ft 241 kts 296°
2026-04-25 05:12 37.56220 -122.23498 2178 ft 206 kts 296°
2026-04-25 05:12 37.56854 -122.24996 1947 ft 180 kts 295°
2026-04-25 05:12 37.57404 -122.26294 1845 ft 159 kts 295°
2026-04-25 05:12 37.57894 -122.27457 1774 ft 147 kts 295°
2026-04-25 05:13 37.58361 -122.28589 1505 ft 144 kts 294°
2026-04-25 05:13 37.58815 -122.29717 1182 ft 144 kts 293°
2026-04-25 05:13 37.59265 -122.30829 826 ft 144 kts 295°
2026-04-25 05:13 37.59747 -122.31899 646 ft 136 kts 299°
2026-04-25 05:14 37.60226 -122.32935 430 ft 139 kts 294°
2026-04-25 05:14 37.60648 -122.34017 373 ft 135 kts 293°
2026-04-25 05:14 37.61069 -122.35038 222 ft 132 kts 295°
2026-04-25 05:15 37.61904 -122.37030 17 ft 113 kts 296°
2026-04-25 05:15 37.62121 -122.37555 18 ft 59 kts 298°
2026-04-25 05:15 37.62199 -122.37799 22 ft 19 kts 280°
2026-04-25 05:15 37.62213 -122.37934 25 ft 13 kts 277°
2026-04-25 05:16 37.62217 -122.37993 25 ft 0 kts 277°
2026-04-25 05:17 37.62217 -122.37994 25 ft 0 kts 277°
2026-04-25 05:17 37.62217 -122.38000 25 ft 1 kts 278°
2026-04-25 05:17 37.62219 -122.38014 25 ft 2 kts 279°
2026-04-25 05:17 37.62221 -122.38031 25 ft 4 kts 279°
2026-04-25 05:18 37.62226 -122.38075 25 ft 7 kts 277°
2026-04-25 05:18 37.62229 -122.38155 24 ft 11 kts 264°
2026-04-25 05:18 37.62187 -122.38252 23 ft 15 kts 219°
2026-04-25 05:18 37.62137 -122.38306 24 ft 4 kts 218°
2026-04-25 05:19 37.62106 -122.38318 22 ft 6 kts 174°
2026-04-25 05:19 37.62077 -122.38283 24 ft 2 kts 121°
2026-04-25 05:19 37.62065 -122.38257 24 ft 5 kts 120°
2026-04-25 05:19 37.62041 -122.38205 24 ft 9 kts 120°
2026-04-25 05:20 37.62018 -122.38147 24 ft 9 kts 117°
2026-04-25 05:20 37.61981 -122.38058 22 ft 14 kts 119°
2026-04-25 05:20 37.61925 -122.37960 22 ft 13 kts 135°
2026-04-25 05:20 37.61844 -122.37882 21 ft 17 kts 135°
2026-04-25 05:21 37.61802 -122.37779 18 ft 13 kts 112°
2026-04-25 05:21 37.61765 -122.37660 20 ft 14 kts 111°
2026-04-25 05:21 37.61734 -122.37563 20 ft 8 kts 112°
2026-04-25 05:21 37.61721 -122.37524 20 ft 0 kts 112°
2026-04-25 05:22 37.61719 -122.37518 20 ft 1 kts 113°
2026-04-25 05:22 37.61712 -122.37496 20 ft 5 kts 113°
2026-04-25 05:22 37.61694 -122.37444 20 ft 8 kts 114°
2026-04-25 05:23 37.61664 -122.37375 24 ft 10 kts 121°
2026-04-25 05:23 37.61619 -122.37304 24 ft 11 kts 147°
2026-04-25 05:23 37.61536 -122.37311 24 ft 14 kts 207°
2026-04-25 05:23 37.61436 -122.37378 22 ft 18 kts 207°
2026-04-25 05:24 37.61329 -122.37450 23 ft 15 kts 207°
2026-04-25 05:24 37.61244 -122.37543 21 ft 14 kts 243°
2026-04-25 05:24 37.61234 -122.37576 18 ft 0 kts 253°
2026-04-25 05:24 37.61233 -122.37580 18 ft 0 kts 253°
2026-04-25 05:25 37.61232 -122.37587 18 ft 3 kts 256°
2026-04-25 05:25 37.61229 -122.37632 18 ft 7 kts 271°
2026-04-25 05:25 37.61244 -122.37702 18 ft 10 kts 294°
2026-04-25 05:26 37.61281 -122.37791 19 ft 14 kts 298°
2026-04-25 05:26 37.61329 -122.37906 15 ft 15 kts 297°
2026-04-25 05:26 37.61375 -122.38014 16 ft 12 kts 298°
2026-04-25 05:26 37.61399 -122.38122 15 ft 14 kts 246°
2026-04-25 05:27 37.61344 -122.38196 15 ft 12 kts 244°
2026-04-25 05:27 37.61368 -122.38274 14 ft 4 kts 304°
2026-04-25 05:27 37.61387 -122.38315 14 ft 7 kts 298°
2026-04-25 05:27 37.61419 -122.38345 15 ft 6 kts 10°
2026-04-25 05:28 37.61447 -122.38325 15 ft 2 kts 30°
2026-04-25 05:28 37.61450 -122.38323 16 ft 0 kts 28°
2026-04-25 05:28 37.61461 -122.38315 16 ft 1 kts 28°
2026-04-25 05:28 37.61462 -122.38314 16 ft 0 kts 28°